COSMOS 2491 DEB, 57551

Orbit data source: Space-Track

COSMOS 2491 DEB, 57551 is space debris in LEO originally from a launch on Wed, 25 Dec 2013 UTC launched from the Plesetsk Missile And Space Complex (PKMTR). Debris objects in space refer to the collection of defunct objects orbiting the Earth. Examples of debris include non-operational satellites, rocket bodies, and fragments generated from explosions, collisions, or faulty payload assembly.

Loading next visibility...
Identifier
57551, 2013-076AN
Orbit
LEO
Country
Flag of CISCIS
Related business
Manufacturer
TsNIIKhM
Mission
Spacecraft
Bus & Motor
Unknown
Mass
Unknown
Launch date (UTC)
2013-12-25 (12 years ago)
Launch vehicle
Unknown
Launch site
Plesetsk Missile And Space Complex (PKMTR)
Object type
Payload
Rocket body
Debris
Shape & HBR
Unknown shape, 0.1 m
Radar Cross Section
Small (<0.1 m²)

Expand to show TLE details & history
Last TLE update: 1 month ago

TLE from 1 month ago
0 COSMOS 2491 DEB
1 57551U 13076AN  26111.95326265  .00001865  00000-0  11401-1 0  9997
2 57551  82.4300 196.0778 0126761 151.5550 209.2531 12.52909790134739
Epoch: 2026-04-21T22:52Z
TLE epoch observation values (Epoch: 2026-04-21T22:52:41.892Z)
Latitude
-0.00009°
Longitude
2.88159°
Altitude
1,541.973 km
Speed
7.056 km/s
True Right ascension
13h 04m 18s
True Declination
0° 00' 00"
Sunlit
Object was in full shadow at epoch
Visualization orbit readout
Latitude
Unknown
Longitude
Unknown
Altitude
Unknown
Speed
Unknown
Apparent Right ascension
Unknown
Apparent Declination
Unknown
Sunlit
N/A
Visualization observer readout
Local Sidereal Time
04:16:28
Azimuth
Unknown
Elevation
Unknown
Doppler factor
Unknown
Orbital elements
Apogee altitude
1,548.913 km
Perigee altitude
1,350.46 km
Semi-major axis
7,827.824 km
Eccentricity
0.01268
Inclination
82.43°
RAAN
196.0778°
Arg. of periapsis
151.555°
True anomaly
208.55297°
Mean anomaly
209.2531°
Eccentric anomaly
208.90208°
Mean motion
3.13387 °/min
Orbital period
114.87 mins
BSTAR
0.011401
Loading maneuver chart data...
Computing Atmospheric mass density...
Loading historical data...
Loading historical data...
Loading historical data...
Loading historical data...
Loading historical data...
Loading historical data...
Loading historical data...

Documentation

Showing up to 5 results
|